BLOCK DM-SL R/B, 40896

Orbit data source: Space-Track

BLOCK DM-SL R/B, 40896 is space debris in GEO originally from a launch on Mon, 14 Sep 2015 UTC launched from the Tyuratam Missile And Space Complex (TTMTR). Debris objects in space refer to the collection of defunct objects orbiting the Earth. Examples of debris include non-operational satellites, rocket bodies, and fragments generated from explosions, collisions, or faulty payload assembly.

Not visible in the next 10 days
Identifier
40896, 2015-048B
Orbit
GEO
Country
Flag of CISCIS
Related business
Manufacturer
RKKE
Mission
Spacecraft
Bus & Motor
BLOK DM2, 11D58M
Mass
2,440 kg wet, 2,440 kg dry
Launch date (UTC)
2015-09-14 (10 years ago)
Launch vehicle
Unknown
Launch site
Tyuratam Missile And Space Complex (TTMTR)
Object type
Payload
Rocket body
Debris
Shape & HBR
Cyl, 3.5 m
Radar Cross Section
26.008 m²

Expand to show TLE details & history
Last TLE update: 1 day ago

TLE from 1 day ago
0 BLOCK DM-SL R/B
1 40896U 15048B   26061.24178075 -.00000214  00000-0  00000-0 0  9992
2 40896   8.8304  61.6896 0097921 145.9742 214.8049  0.98658730 37721
Epoch: 2026-03-02T05:48Z
TLE epoch observation values (Epoch: 2026-03-02T05:48:09.856Z)
Latitude
0.00001°
Longitude
174.77175°
Altitude
36,586.808 km
Speed
3.034 km/s
True Right ascension
04h 07m 24s
True Declination
0° 00' 00"
Sunlit
Object was in daylight at epoch
Visualization orbit readout
Latitude
Unknown
Longitude
Unknown
Altitude
Unknown
Speed
Unknown
Apparent Right ascension
Unknown
Apparent Declination
Unknown
Sunlit
N/A
Visualization observer readout
Local Sidereal Time
16:44:43
Azimuth
Unknown
Elevation
Unknown
Doppler factor
Unknown
Orbital elements
Apogee altitude
36,663.345 km
Perigee altitude
35,828.586 km
Semi-major axis
42,624.103 km
Eccentricity
0.00979
Inclination
8.8304°
RAAN
61.6896°
Arg. of periapsis
145.9742°
True anomaly
214.17082°
Mean anomaly
214.8049°
Eccentric anomaly
214.48722°
Mean motion
0.24664 °/min
Orbital period
1,459.63 mins
BSTAR
0
Loading maneuver chart data...
Computing Atmospheric mass density...
Loading historical data...
Loading historical data...
Loading historical data...
Loading historical data...
Loading historical data...
Loading historical data...
Loading historical data...
Other satellites on launch #48 in the year 2015 (2015-09-14 UTC)

Documentation

Showing up to 5 results
|